Time,TemperatureF,DewpointF,PressureIn,WindDirection,WindDirectionDegrees,WindSpeedMPH,WindSpeedGustMPH,Humidity,HourlyPrecipIn,Conditions,Clouds,dailyrainin,SoftwareType,DateUTC
2013-02-02 00:10:00,73.1,65.0,30.14,NE,54,6.0,14.0,76,0.00,,,0.00,weatherlink.com 1.10,2013-02-02 06:10:00,
2013-02-02 00:40:00,73.1,65.0,30.13,ENE,66,7.0,10.0,76,0.00,,,0.00,weatherlink.com 1.10,2013-02-02 06:40:00,
2013-02-02 00:55:00,73.2,65.0,30.12,NE,40,5.0,12.0,76,0.00,,,0.00,weatherlink.com 1.10,2013-02-02 06:55:00,
2013-02-02 01:10:00,73.3,66.0,30.12,NNE,22,5.0,12.0,77,0.00,,,0.00,weatherlink.com 1.10,2013-02-02 07:10:00,
2013-02-02 01:25:00,73.4,65.0,30.12,NNE,33,11.0,14.0,76,0.00,,,0.00,weatherlink.com 1.10,2013-02-02 07:25:00,
2013-02-02 01:55:00,73.4,65.0,30.10,NE,34,6.0,10.0,76,0.00,,,0.00,weatherlink.com 1.10,2013-02-02 07:55:00,
2013-02-02 02:10:00,73.3,65.0,30.10,ENE,63,6.0,12.0,75,0.00,,,0.00,weatherlink.com 1.10,2013-02-02 08:10:00,
2013-02-02 02:25:00,-999.0,-99.9,30.10,North,-999,-999.0,-999.0,-999,0.00,,,0.00,weatherlink.com 1.10,2013-02-02 08:25:00,
2013-02-02 02:40:00,-999.0,-99.9,30.10,North,-999,-999.0,-999.0,-999,0.00,,,0.00,weatherlink.com 1.10,2013-02-02 08:40:00,
2013-02-02 02:55:00,-999.0,-99.9,30.10,North,-999,-999.0,-999.0,-999,0.00,,,0.00,weatherlink.com 1.10,2013-02-02 08:55:00,
2013-02-02 03:10:00,-999.0,-99.9,30.10,North,-999,-999.0,-999.0,-999,0.00,,,0.00,weatherlink.com 1.10,2013-02-02 09:10:00,
2013-02-02 03:26:00,-999.0,-99.9,30.10,North,-999,-999.0,-999.0,-999,0.00,,,0.00,weatherlink.com 1.10,2013-02-02 09:26:00,
2013-02-02 03:40:00,-999.0,-99.9,30.10,North,-999,-999.0,-999.0,-999,0.00,,,0.00,weatherlink.com 1.10,2013-02-02 09:40:00,
2013-02-02 03:55:00,73.7,66.0,30.10,ENE,73,7.0,10.0,78,0.00,,,0.00,weatherlink.com 1.10,2013-02-02 09:55:00,
2013-02-02 04:10:00,73.6,66.0,30.10,ENE,66,8.0,9.0,78,0.00,,,0.00,weatherlink.com 1.10,2013-02-02 10:10:00,
2013-02-02 04:25:00,73.6,66.0,30.10,ENE,70,2.0,8.0,78,0.00,,,0.00,weatherlink.com 1.10,2013-02-02 10:25:00,
2013-02-02 04:40:00,73.7,67.0,30.10,ENE,66,8.0,9.0,79,0.00,,,0.00,weatherlink.com 1.10,2013-02-02 10:40:00,
2013-02-02 04:55:00,73.9,67.0,30.10,ENE,72,7.0,9.0,79,0.00,,,0.00,weatherlink.com 1.10,2013-02-02 10:55:00,
2013-02-02 05:11:00,74.0,67.0,30.10,ENE,70,4.0,9.0,78,0.00,,,0.00,weatherlink.com 1.10,2013-02-02 11:11:00,
2013-02-02 05:26:00,74.1,67.0,30.10,NE,44,5.0,8.0,78,0.00,,,0.00,weatherlink.com 1.10,2013-02-02 11:26:00,
2013-02-02 05:40:00,74.1,67.0,30.11,ENE,57,7.0,9.0,78,0.00,,,0.00,weatherlink.com 1.10,2013-02-02 11:40:00,
2013-02-02 05:56:00,74.1,66.0,30.11,East,101,3.0,8.0,77,0.00,,,0.00,weatherlink.com 1.10,2013-02-02 11:56:00,
2013-02-02 06:11:00,73.9,67.0,30.11,ESE,108,6.0,8.0,78,0.00,,,0.00,weatherlink.com 1.10,2013-02-02 12:11:00,
2013-02-02 06:26:00,73.9,66.0,30.11,East,95,2.0,4.0,77,0.00,,,0.00,weatherlink.com 1.10,2013-02-02 12:26:00,
2013-02-02 06:41:00,74.0,67.0,30.11,East,95,3.0,5.0,78,0.00,,,0.00,weatherlink.com 1.10,2013-02-02 12:41:00,
2013-02-02 06:56:00,74.1,67.0,30.12,ESE,118,4.0,4.0,78,0.00,,,0.00,weatherlink.com 1.10,2013-02-02 12:56:00,
2013-02-02 07:11:00,74.5,68.0,30.12,ESE,117,3.0,7.0,79,0.00,,,0.00,weatherlink.com 1.10,2013-02-02 13:11:00,
2013-02-02 07:26:00,74.9,68.0,30.13,East,92,2.0,4.0,79,0.00,,,0.00,weatherlink.com 1.10,2013-02-02 13:26:00,
2013-02-02 07:41:00,75.3,68.0,30.13,ENE,70,3.0,7.0,79,0.00,,,0.00,weatherlink.com 1.10,2013-02-02 13:41:00,
2013-02-02 07:56:00,75.7,69.0,30.14,ENE,63,5.0,6.0,79,0.00,,,0.00,weatherlink.com 1.10,2013-02-02 13:56:00,
2013-02-02 08:11:00,76.1,69.0,30.14,ENE,68,7.0,8.0,78,0.00,,,0.00,weatherlink.com 1.10,2013-02-02 14:11:00,
2013-02-02 08:26:00,76.4,69.0,30.14,ENE,64,4.0,8.0,79,0.00,,,0.00,weatherlink.com 1.10,2013-02-02 14:26:00,
2013-02-02 08:41:00,76.6,70.0,30.14,NE,53,7.0,12.0,79,0.00,,,0.00,weatherlink.com 1.10,2013-02-02 14:41:00,
2013-02-02 08:56:00,77.2,70.0,30.15,ENE,59,11.0,13.0,78,0.00,,,0.00,weatherlink.com 1.10,2013-02-02 14:56:00,
2013-02-02 09:11:00,77.8,70.0,30.15,ENE,58,8.0,12.0,76,0.00,,,0.00,weatherlink.com 1.10,2013-02-02 15:11:00,
2013-02-02 09:26:00,77.5,70.0,30.15,NE,44,6.0,10.0,78,0.00,,,0.00,weatherlink.com 1.10,2013-02-02 15:26:00,
2013-02-02 09:41:00,77.4,70.0,30.15,NE,45,4.0,10.0,78,0.00,,,0.00,weatherlink.com 1.10,2013-02-02 15:41:00,
2013-02-02 09:56:00,76.6,70.0,30.15,NE,41,7.0,9.0,81,0.01,,,0.01,weatherlink.com 1.10,2013-02-02 15:56:00,
2013-02-02 10:12:00,76.9,71.0,30.14,ENE,75,12.0,12.0,81,0.01,,,0.01,weatherlink.com 1.10,2013-02-02 16:12:00,
2013-02-02 10:26:00,78.2,70.0,30.14,ESE,103,11.0,13.0,77,0.01,,,0.01,weatherlink.com 1.10,2013-02-02 16:26:00,
2013-02-02 10:41:00,78.4,71.0,30.13,ESE,105,7.0,10.0,77,0.01,,,0.01,weatherlink.com 1.10,2013-02-02 16:41:00,
2013-02-02 10:56:00,78.5,71.0,30.12,ENE,69,7.0,11.0,77,0.00,,,0.01,weatherlink.com 1.10,2013-02-02 16:56:00,
2013-02-02 11:11:00,79.0,70.0,30.12,NE,41,9.0,12.0,75,0.00,,,0.01,weatherlink.com 1.10,2013-02-02 17:11:00,
2013-02-02 11:26:00,78.7,71.0,30.11,East,96,13.0,13.0,76,0.00,,,0.01,weatherlink.com 1.10,2013-02-02 17:26:00,
2013-02-02 11:41:00,79.0,72.0,30.11,NNE,19,9.0,12.0,78,0.00,,,0.01,weatherlink.com 1.10,2013-02-02 17:41:00,
2013-02-02 11:56:00,79.4,71.0,30.10,ENE,77,4.0,11.0,76,0.00,,,0.01,weatherlink.com 1.10,2013-02-02 17:56:00,
2013-02-02 12:12:00,79.1,71.0,30.09,ENE,68,7.0,11.0,76,0.00,,,0.01,weatherlink.com 1.10,2013-02-02 18:12:00,
2013-02-02 12:27:00,79.0,71.0,30.09,NNE,32,9.0,12.0,76,0.00,,,0.01,weatherlink.com 1.10,2013-02-02 18:27:00,
2013-02-02 12:42:00,79.0,71.0,30.08,ENE,63,9.0,14.0,77,0.00,,,0.01,weatherlink.com 1.10,2013-02-02 18:42:00,
2013-02-02 12:56:00,79.0,72.0,30.08,NNE,22,6.0,11.0,78,0.00,,,0.01,weatherlink.com 1.10,2013-02-02 18:56:00,
2013-02-02 13:11:00,78.5,72.0,30.07,NNE,25,9.0,11.0,79,0.00,,,0.01,weatherlink.com 1.10,2013-02-02 19:11:00,
2013-02-02 13:26:00,78.9,72.0,30.06,NNE,28,8.0,10.0,78,0.00,,,0.01,weatherlink.com 1.10,2013-02-02 19:26:00,
2013-02-02 13:41:00,78.8,71.0,30.06,North,9,6.0,12.0,77,0.00,,,0.01,weatherlink.com 1.10,2013-02-02 19:41:00,
2013-02-02 13:56:00,79.2,72.0,30.06,NE,49,12.0,14.0,78,0.00,,,0.01,weatherlink.com 1.10,2013-02-02 19:56:00,
2013-02-02 14:12:00,79.4,72.0,30.05,East,86,9.0,15.0,78,0.00,,,0.01,weatherlink.com 1.10,2013-02-02 20:12:00,
2013-02-02 14:27:00,78.5,71.0,30.05,ENE,73,11.0,17.0,78,0.00,,,0.01,weatherlink.com 1.10,2013-02-02 20:27:00,
2013-02-02 14:42:00,78.3,72.0,30.05,ENE,63,9.0,14.0,80,0.00,,,0.01,weatherlink.com 1.10,2013-02-02 20:42:00,
2013-02-02 14:57:00,77.5,72.0,30.05,ENE,68,10.0,13.0,84,0.00,,,0.01,weatherlink.com 1.10,2013-02-02 20:57:00,
2013-02-02 15:12:00,77.4,72.0,30.05,ENE,78,6.0,14.0,83,0.00,,,0.01,weatherlink.com 1.10,2013-02-02 21:12:00,
2013-02-02 15:27:00,77.3,71.0,30.05,NE,56,11.0,15.0,82,0.00,,,0.01,weatherlink.com 1.10,2013-02-02 21:27:00,
2013-02-02 15:42:00,77.3,72.0,30.05,NE,49,13.0,16.0,83,0.00,,,0.01,weatherlink.com 1.10,2013-02-02 21:42:00,
2013-02-02 15:57:00,77.6,72.0,30.06,ENE,72,10.0,12.0,82,0.00,,,0.01,weatherlink.com 1.10,2013-02-02 21:57:00,
2013-02-02 16:12:00,77.1,72.0,30.05,NE,53,6.0,12.0,83,0.00,,,0.01,weatherlink.com 1.10,2013-02-02 22:12:00,
2013-02-02 16:27:00,76.5,72.0,30.06,NNE,20,9.0,13.0,86,0.00,,,0.01,weatherlink.com 1.10,2013-02-02 22:27:00,
2013-02-02 16:42:00,75.9,72.0,30.06,ENE,59,6.0,13.0,88,0.00,,,0.01,weatherlink.com 1.10,2013-02-02 22:42:00,
2013-02-02 16:57:00,75.3,71.0,30.06,NE,34,11.0,11.0,87,0.00,,,0.01,weatherlink.com 1.10,2013-02-02 22:57:00,
2013-02-02 17:12:00,75.1,71.0,30.06,NE,42,8.0,12.0,87,0.00,,,0.01,weatherlink.com 1.10,2013-02-02 23:12:00,
2013-02-02 17:27:00,74.8,71.0,30.06,NNE,25,3.0,10.0,87,0.00,,,0.01,weatherlink.com 1.10,2013-02-02 23:27:00,
2013-02-02 17:42:00,74.8,71.0,30.06,ENE,70,6.0,8.0,87,0.00,,,0.01,weatherlink.com 1.10,2013-02-02 23:42:00,
2013-02-02 17:57:00,74.9,72.0,30.07,ENE,60,6.0,9.0,89,0.00,,,0.01,weatherlink.com 1.10,2013-02-02 23:57:00,
2013-02-02 18:13:00,74.5,71.0,30.07,ENE,70,6.0,8.0,89,0.00,,,0.01,weatherlink.com 1.10,2013-02-03 00:13:00,
2013-02-02 18:27:00,74.8,71.0,30.07,ENE,58,3.0,7.0,88,0.00,,,0.01,weatherlink.com 1.10,2013-02-03 00:27:00,
2013-02-02 18:42:00,75.1,71.0,30.07,ESE,105,3.0,6.0,88,0.00,,,0.01,weatherlink.com 1.10,2013-02-03 00:42:00,
2013-02-02 18:57:00,75.4,72.0,30.07,East,85,3.0,5.0,88,0.00,,,0.01,weatherlink.com 1.10,2013-02-03 00:57:00,
2013-02-02 19:12:00,75.6,72.0,30.08,ENE,77,3.0,6.0,88,0.00,,,0.01,weatherlink.com 1.10,2013-02-03 01:12:00,
2013-02-02 19:27:00,75.7,72.0,30.09,East,95,3.0,5.0,89,0.00,,,0.01,weatherlink.com 1.10,2013-02-03 01:27:00,
2013-02-02 19:42:00,75.9,72.0,30.09,SE,124,2.0,5.0,88,0.00,,,0.01,weatherlink.com 1.10,2013-02-03 01:42:00,
2013-02-02 19:57:00,75.9,72.0,30.10,East,87,1.0,5.0,88,0.00,,,0.01,weatherlink.com 1.10,2013-02-03 01:57:00,
2013-02-02 20:12:00,76.0,72.0,30.10,East,86,4.0,5.0,87,0.00,,,0.01,weatherlink.com 1.10,2013-02-03 02:12:00,
2013-02-02 20:27:00,76.2,71.0,30.10,NE,41,4.0,5.0,84,0.00,,,0.01,weatherlink.com 1.10,2013-02-03 02:27:00,
2013-02-02 20:42:00,76.8,70.0,30.10,NNE,22,5.0,8.0,79,0.00,,,0.01,weatherlink.com 1.10,2013-02-03 02:42:00,
2013-02-02 20:57:00,77.0,70.0,30.10,NNE,25,7.0,10.0,78,0.00,,,0.01,weatherlink.com 1.10,2013-02-03 02:57:00,
2013-02-02 21:12:00,77.0,70.0,30.10,NNE,32,4.0,6.0,78,0.00,,,0.01,weatherlink.com 1.10,2013-02-03 03:12:00,
2013-02-02 21:27:00,76.7,70.0,30.10,NE,52,6.0,8.0,79,0.00,,,0.01,weatherlink.com 1.10,2013-02-03 03:27:00,
2013-02-02 21:42:00,76.5,70.0,30.10,NE,35,5.0,6.0,80,0.00,,,0.01,weatherlink.com 1.10,2013-02-03 03:42:00,
2013-02-02 21:57:00,76.4,70.0,30.10,NE,48,6.0,7.0,81,0.00,,,0.01,weatherlink.com 1.10,2013-02-03 03:57:00,
2013-02-02 22:12:00,76.4,70.0,30.10,NNE,25,4.0,9.0,81,0.00,,,0.01,weatherlink.com 1.10,2013-02-03 04:12:00,
2013-02-02 22:27:00,76.3,70.0,30.10,NNE,32,6.0,9.0,80,0.00,,,0.01,weatherlink.com 1.10,2013-02-03 04:27:00,
2013-02-02 22:42:00,76.1,70.0,30.09,NNE,28,4.0,6.0,81,0.00,,,0.01,weatherlink.com 1.10,2013-02-03 04:42:00,
2013-02-02 22:57:00,75.8,70.0,30.09,NNE,17,5.0,5.0,81,0.00,,,0.01,weatherlink.com 1.10,2013-02-03 04:57:00,
2013-02-02 23:12:00,75.8,70.0,30.09,North,349,3.0,6.0,81,0.00,,,0.01,weatherlink.com 1.10,2013-02-03 05:12:00,
2013-02-02 23:27:00,75.7,69.0,30.08,NNE,15,3.0,6.0,80,0.00,,,0.01,weatherlink.com 1.10,2013-02-03 05:27:00,
2013-02-02 23:42:00,75.6,69.0,30.08,NE,47,2.0,5.0,81,0.00,,,0.01,weatherlink.com 1.10,2013-02-03 05:42:00,
2013-02-02 23:57:00,75.1,69.0,30.07,NE,36,4.0,4.0,82,0.00,,,0.01,weatherlink.com 1.10,2013-02-03 05:57:00,